When you browse on this site, cookies collect data to enhance your experience and personalize the content and advertising you see.
Visit our Privacy Policy to learn more. By continuing to use the site, you agree to this use of cookies and data.
  • In Schweiz
  • Länderverzeichnis
  • Für 7 Tage
  • Wassertemperatur
  • Wetterkarte
  • Widgets
  • user-avatar
    Anmelden

    Stündliche Wetter Birmingem

    Heute, 5 Juni, Freitag

    Zeit Temperatur Niederschläge Wind Luftdruck Luftfeuchtigkeit
    00:00 +23°C° 0.5 mm 2 m/S 740 mmHg 90%
    01:00 +23°C° 0.2 mm 2 m/S 740 mmHg 92%
    02:00 +23°C° 0.2 mm 2 m/S 740 mmHg 93%
    03:00 +23°C° 0.2 mm 2 m/S 741 mmHg 94%
    04:00 +23°C° 0.6 mm 2 m/S 741 mmHg 94%
    05:00 +23°C° 0.6 mm 2 m/S 741 mmHg 94%
    06:00 +23°C° 0.6 mm 2 m/S 742 mmHg 94%
    07:00 +25°C° 0 mm 2 m/S 742 mmHg 85%
    08:00 +27°C° 0 mm 2 m/S 742 mmHg 77%
    09:00 +29°C° 0 mm 2 m/S 742 mmHg 68%
    10:00 +30°C° 1.1 mm 3 m/S 742 mmHg 68%
    11:00 +30°C° 1.1 mm 3 m/S 742 mmHg 67%
    12:00 +31°C° 1.1 mm 3 m/S 741 mmHg 66%
    13:00 +32°C° 0.2 mm 2 m/S 741 mmHg 61%
    14:00 +32°C° 0.2 mm 2 m/S 741 mmHg 57%
    15:00 +34°C° 0.2 mm 2 m/S 740 mmHg 52%
    16:00 +32°C° 0.1 mm 1 m/S 740 mmHg 57%
    17:00 +31°C° 0.1 mm 1 m/S 740 mmHg 62%
    18:00 +30°C° 0.1 mm 1 m/S 740 mmHg 67%
    19:00 +29°C° 0 mm 1 m/S 741 mmHg 72%
    20:00 +27°C° 0 mm 1 m/S 741 mmHg 76%
    21:00 +26°C° 0 mm 1 m/S 741 mmHg 81%
    22:00 +26°C° 0 mm 1 m/S 741 mmHg 82%
    23:00 +25°C° 0 mm 1 m/S 741 mmHg 83%

    Morgen, 6 Juni, Samstag

    Zeit Temperatur Niederschläge Wind Luftdruck Luftfeuchtigkeit
    00:00 +25°C° 0 mm 1 m/S 741 mmHg 84%
    01:00 +24°C° 0 mm 1 m/S 741 mmHg 86%
    02:00 +24°C° 0 mm 1 m/S 741 mmHg 88%
    03:00 +23°C° 0 mm 1 m/S 741 mmHg 90%
    04:00 +24°C° 0 mm 1 m/S 741 mmHg 89%
    05:00 +24°C° 0 mm 1 m/S 741 mmHg 89%
    06:00 +24°C° 0 mm 1 m/S 741 mmHg 88%
    07:00 +27°C° 0 mm 1 m/S 741 mmHg 79%
    08:00 +30°C° 0 mm 1 m/S 741 mmHg 69%
    09:00 +32°C° 0 mm 1 m/S 741 mmHg 60%
    10:00 +33°C° 0.8 mm 1 m/S 741 mmHg 57%
    11:00 +34°C° 0.8 mm 1 m/S 741 mmHg 53%
    12:00 +35°C° 0.8 mm 1 m/S 741 mmHg 50%
    13:00 +35°C° 0.2 mm 1 m/S 740 mmHg 49%
    14:00 +35°C° 0.2 mm 1 m/S 739 mmHg 48%
    15:00 +34°C° 0.2 mm 1 m/S 739 mmHg 46%
    16:00 +34°C° 0.1 mm 2 m/S 739 mmHg 55%
    17:00 +31°C° 0.1 mm 2 m/S 739 mmHg 63%
    18:00 +29°C° 0.1 mm 2 m/S 739 mmHg 71%
    19:00 +28°C° 0.1 mm 2 m/S 739 mmHg 76%
    20:00 +27°C° 0.1 mm 2 m/S 739 mmHg 81%
    21:00 +25°C° 0.1 mm 2 m/S 740 mmHg 86%
    22:00 +25°C° 0 mm 2 m/S 739 mmHg 87%
    23:00 +24°C° 0 mm 1 m/S 739 mmHg 88%

    übermorgen, 7 Juni, Sonntag

    Zeit Temperatur Niederschläge Wind Luftdruck Luftfeuchtigkeit
    00:00 +24°C° 0 mm 1 m/S 739 mmHg 89%
    01:00 +24°C° 0 mm 1 m/S 739 mmHg 90%
    02:00 +23°C° 0 mm 1 m/S 738 mmHg 91%
    03:00 +23°C° 0 mm 1 m/S 738 mmHg 92%
    04:00 +23°C° 0 mm 2 m/S 738 mmHg 91%
    05:00 +23°C° 0 mm 2 m/S 738 mmHg 90%
    06:00 +23°C° 0 mm 2 m/S 738 mmHg 89%
    07:00 +25°C° 0 mm 3 m/S 739 mmHg 82%
    08:00 +27°C° 0 mm 3 m/S 739 mmHg 74%
    09:00 +28°C° 0 mm 4 m/S 739 mmHg 66%
    10:00 +29°C° 0 mm 4 m/S 739 mmHg 61%
    11:00 +32°C° 0 mm 4 m/S 739 mmHg 56%
    12:00 +33°C° 0 mm 4 m/S 738 mmHg 51%
    13:00 +33°C° 0 mm 4 m/S 738 mmHg 53%
    14:00 +33°C° 0 mm 4 m/S 737 mmHg 55%
    15:00 +33°C° 0 mm 4 m/S 737 mmHg 56%
    16:00 +32°C° 0 mm 4 m/S 737 mmHg 62%
    17:00 +30°C° 0 mm 3 m/S 737 mmHg 68%
    18:00 +29°C° 0 mm 3 m/S 737 mmHg 74%
    19:00 +28°C° 0 mm 3 m/S 737 mmHg 76%
    20:00 +27°C° 0 mm 3 m/S 738 mmHg 79%
    21:00 +26°C° 0 mm 4 m/S 738 mmHg 81%
    22:00 +26°C° 0 mm 4 m/S 738 mmHg 83%
    23:00 +25°C° 0 mm 4 m/S 738 mmHg 85%

    8 Juni, Montag

    Zeit Temperatur Niederschläge Wind Luftdruck Luftfeuchtigkeit
    00:00 +25°C° 0 mm 3 m/S 738 mmHg 87%
    01:00 +25°C° 0 mm 4 m/S 738 mmHg 86%
    02:00 +25°C° 0 mm 4 m/S 738 mmHg 85%
    03:00 +26°C° 0 mm 4 m/S 738 mmHg 84%
    04:00 +26°C° 0 mm 4 m/S 738 mmHg 84%
    05:00 +26°C° 0 mm 4 m/S 738 mmHg 84%
    06:00 +26°C° 0 mm 4 m/S 739 mmHg 84%
    07:00 +26°C° 0 mm 4 m/S 739 mmHg 82%
    08:00 +27°C° 0 mm 4 m/S 739 mmHg 80%
    09:00 +27°C° 0 mm 5 m/S 739 mmHg 78%
    10:00 +28°C° 0.1 mm 5 m/S 739 mmHg 76%
    11:00 +29°C° 0.1 mm 5 m/S 739 mmHg 74%
    12:00 +29°C° 0.1 mm 5 m/S 739 mmHg 73%
    13:00 +30°C° 0.4 mm 5 m/S 739 mmHg 71%
    14:00 +32°C° 0.4 mm 5 m/S 738 mmHg 70%
    15:00 +33°C° 0.4 mm 5 m/S 738 mmHg 69%
    16:00 +32°C° 0.4 mm 4 m/S 738 mmHg 72%
    17:00 +30°C° 0.4 mm 4 m/S 738 mmHg 76%
    18:00 +29°C° 0.4 mm 4 m/S 738 mmHg 79%
    19:00 +28°C° 0.1 mm 3 m/S 739 mmHg 81%
    20:00 +27°C° 0.1 mm 3 m/S 739 mmHg 84%
    21:00 +26°C° 0.1 mm 3 m/S 740 mmHg 86%
    22:00 +26°C° 0 mm 3 m/S 740 mmHg 87%
    23:00 +25°C° 0 mm 3 m/S 740 mmHg 88%

    9 Juni, Dienstag

    Zeit Temperatur Niederschläge Wind Luftdruck Luftfeuchtigkeit
    00:00 +25°C° 0 mm 2 m/S 740 mmHg 89%
    01:00 +25°C° 0 mm 2 m/S 740 mmHg 91%
    02:00 +24°C° 0 mm 2 m/S 739 mmHg 92%
    03:00 +24°C° 0 mm 2 m/S 739 mmHg 94%
    04:00 +24°C° 0 mm 2 m/S 740 mmHg 93%
    05:00 +24°C° 0 mm 2 m/S 740 mmHg 92%
    06:00 +25°C° 0 mm 3 m/S 741 mmHg 91%
    07:00 +27°C° 0 mm 3 m/S 741 mmHg 82%
    08:00 +29°C° 0 mm 3 m/S 741 mmHg 72%
    09:00 +30°C° 0 mm 4 m/S 741 mmHg 63%
    10:00 +32°C° 0.1 mm 4 m/S 741 mmHg 61%
    11:00 +33°C° 0.1 mm 4 m/S 741 mmHg 58%
    12:00 +34°C° 0.1 mm 4 m/S 740 mmHg 55%
    13:00 +34°C° 0.6 mm 4 m/S 740 mmHg 58%
    14:00 +33°C° 0.6 mm 4 m/S 740 mmHg 61%
    15:00 +33°C° 0.6 mm 4 m/S 739 mmHg 64%
    16:00 +30°C° 0.6 mm 4 m/S 739 mmHg 69%
    17:00 +29°C° 0.6 mm 3 m/S 739 mmHg 75%
    18:00 +28°C° 0.6 mm 3 m/S 739 mmHg 80%
    19:00 +27°C° 0.3 mm 2 m/S 740 mmHg 83%
    20:00 +26°C° 0.3 mm 2 m/S 740 mmHg 86%
    21:00 +25°C° 0.3 mm 1 m/S 740 mmHg 89%
    22:00 +24°C° 0 mm 2 m/S 740 mmHg 90%
    23:00 +24°C° 0 mm 2 m/S 740 mmHg 91%

    10 Juni, Mittwoch

    Zeit Temperatur Niederschläge Wind Luftdruck Luftfeuchtigkeit
    00:00 +24°C° 0 mm 2 m/S 739 mmHg 91%
    01:00 +24°C° 0 mm 2 m/S 739 mmHg 92%
    02:00 +24°C° 0 mm 2 m/S 739 mmHg 93%
    03:00 +24°C° 0 mm 3 m/S 739 mmHg 94%
    04:00 +24°C° 0.2 mm 3 m/S 739 mmHg 93%
    05:00 +24°C° 0.2 mm 3 m/S 739 mmHg 91%
    06:00 +24°C° 0.2 mm 3 m/S 739 mmHg 90%
    07:00 +23°C° 1.2 mm 4 m/S 739 mmHg 91%
    08:00 +23°C° 1.2 mm 4 m/S 739 mmHg 92%
    09:00 +23°C° 1.2 mm 5 m/S 739 mmHg 93%
    10:00 +23°C° 3.5 mm 5 m/S 739 mmHg 93%
    11:00 +23°C° 3.5 mm 5 m/S 739 mmHg 93%
    12:00 +22°C° 3.5 mm 5 m/S 739 mmHg 93%
    13:00 +22°C° 3.1 mm 5 m/S 738 mmHg 93%
    14:00 +22°C° 3.1 mm 5 m/S 738 mmHg 94%
    15:00 +22°C° 3.1 mm 4 m/S 737 mmHg 94%
    16:00 +22°C° 4.8 mm 4 m/S 738 mmHg 94%
    17:00 +22°C° 4.8 mm 4 m/S 738 mmHg 94%
    18:00 +22°C° 4.8 mm 4 m/S 738 mmHg 95%
    19:00 +22°C° 4.7 mm 4 m/S 738 mmHg 94%
    20:00 +22°C° 4.7 mm 4 m/S 739 mmHg 94%
    21:00 +22°C° 4.7 mm 4 m/S 739 mmHg 93%
    22:00 +21°C° 3.4 mm 4 m/S 739 mmHg 94%
    23:00 +21°C° 3.4 mm 4 m/S 739 mmHg 94%
    Mehr zeigen